[[{"header":{"parameterUnit":"m.s-1","parameterCategory":1,"la1":30.2991,"la2":30.254,"lo1":-89.0895,"lo2":-89.0444,"dy":0.0017,"dx":0.0017,"nx":28,"ny":28,"refTime":"2025-03-12T03:00:00:Z","depth":0,"parameterNumber":2,"parameterNumberName":"U-component_of_WINDS"},"data":[0,0,0,0,0,0,0,0,0,0,0,0,0,0,0,0,0,0,0,0,0,0,0,0,0,0,0,0,0,0,0,0,0,0,0,0,0,0,0,0,0,0,0,0,0,0,0,0,0,0,0,0,0,0,0,0,0,0,0.3172,0.3172,0,0.3157,0.3157,0.3157,0.3115,0.3114,0.3113,0.3113,0.31,0.31,0.3101,0,0,0,0,0,0,0,0,0,0,0,0,0,0.3166,0.3166,0.3172,0.3172,0.3172,0.3157,0.3157,0.3157,0.3115,0.3114,0.3113,0.3112,0.31,0.31,0.3101,0,0,0,0,0,0,0,0,0,0,0,0,0,0.3162,0.3166,0.3172,0.3149,0.3147,0.3157,0.3157,0.3157,0.3116,0.3114,0.3113,0.3112,0.3099,0.31,0.3101,0.3133,0,0,0.3103,0.3104,0,0,0,0,0,0,0,0,0.3162,0.3162,0.3153,0.3151,0.3148,0.3137,0.315,0.3149,0.3116,0.3128,0.3113,0.3111,0.3113,0.3113,0.3113,0.3132,0.3132,0.3103,0.3104,0.3104,0.3104,0,0,0,0,0,0,0,0.3162,0.3162,0.3166,0.3153,0.315,0.314,0.3138,0.315,0.3128,0.3126,0.3123,0.3122,0.3112,0.3112,0.3112,0.3132,0.3103,0.3104,0.3104,0.3105,0.3176,0.3177,0,0,0,0,0,0,0.3165,0.3163,0.3167,0.3166,0.3152,0.3141,0.3139,0.3142,0.3128,0.3125,0.3123,0.312,0.3112,0.3112,0.3112,0.3148,0.3104,0.3105,0.3105,0.3174,0.3176,0.3178,0,0,0,0,0,0,0.3165,0.3166,0.3167,0.3163,0.3163,0.3143,0.3146,0.3142,0.3143,0.3126,0.3122,0.3128,0.3111,0.3111,0.3128,0.3147,0.3105,0.3106,0.3173,0.3175,0.3177,0.3221,0,0,0,0,0,0,0.3165,0.3166,0.3178,0.3164,0.3163,0.3183,0.3148,0.3143,0.3144,0.314,0.3129,0.3126,0.311,0.3127,0.3128,0.3147,0.3106,0.3171,0.3174,0.3176,0.3218,0.3225,0.323,0,0,0,0,0,0.3165,0.3192,0.3179,0.318,0.3177,0.3184,0.3184,0.3164,0.3146,0.3157,0.3146,0.3126,0.3145,0.3129,0.313,0.315,0.317,0.3173,0.3176,0.3215,0.3223,0.323,0,0,0,0,0,0,0.321,0.3189,0.3175,0.3197,0.3193,0.3177,0.3191,0.3173,0.3174,0.3171,0.3147,0.3145,0.3165,0.3159,0.3142,0.318,0.3154,0.3158,0.3183,0.3191,0.3197,0.3198,0.3107,0,0,0,0,0,0.3222,0.3229,0.3211,0.3232,0.3231,0.3211,0.3214,0.3199,0.3193,0.3191,0.3182,0.3178,0.3182,0.3186,0.319,0.3217,0.3214,0.3231,0.3237,0.3242,0.3246,0.326,0.3267,0.3188,0.3188,0.3188,0,0,0.3247,0.3237,0.3243,0.3241,0.3236,0.3244,0.321,0.322,0.3226,0.3193,0.3208,0.3201,0.3195,0.3217,0.3226,0.3213,0.3267,0.3247,0.3251,0.3252,0.3264,0.3271,0.3278,0.3191,0.319,0.319,0,0,0.3298,0.3291,0.3308,0.3303,0.3295,0.3282,0.3286,0.3273,0.3266,0.3281,0.3256,0.3263,0.3272,0.3269,0.3268,0.3317,0.3299,0.3319,0.3352,0.3365,0.3371,0.3377,0.3394,0.3401,0.3323,0.3323,0.3323,0,0.3331,0.3342,0.3319,0.333,0.333,0.33,0.3317,0.3314,0.3308,0.3308,0.3293,0.3303,0.3297,0.3318,0.333,0.333,0.3334,0.332,0.3372,0.3377,0.3382,0.3399,0.3405,0.3325,0.3325,0.3325,0.3324,0,0.3383,0.339,0.3405,0.3399,0.34,0.3415,0.3395,0.3399,0.3384,0.3373,0.3388,0.3379,0.338,0.3384,0.337,0.3403,0.3395,0.3376,0.335,0.3393,0.3408,0.3414,0.3329,0.3328,0.3327,0.3327,0,0,0.3461,0.3442,0.3448,0.3444,0.3433,0.3439,0.3452,0.3452,0.3456,0.3453,0.3463,0.3471,0.3454,0.3453,0.3438,0.345,0.3489,0.343,0.343,0.3441,0.3525,0.3539,0.3547,0.3477,0.3478,0.3479,0.3526,0,0.3509,0.3529,0.3509,0.3534,0.354,0.3512,0.3523,0.3518,0.3507,0.3512,0.3501,0.3507,0.3483,0.3483,0.3493,0.3482,0.3506,0.3479,0.3487,0.3487,0.3489,0.3555,0.3569,0.3614,0.3531,0.3532,0.3533,0,0.3567,0.3566,0.3591,0.3577,0.3579,0.359,0.3588,0.3593,0.3586,0.3578,0.3577,0.3559,0.3571,0.3545,0.3561,0.3543,0.3545,0.3541,0.3542,0.3542,0.3513,0.3557,0.3628,0.3634,0.3542,0.3541,0.3541,0,0.3622,0.3626,0.3641,0.364,0.3624,0.3632,0.3627,0.3618,0.362,0.3619,0.3619,0.362,0.362,0.3622,0.3604,0.3587,0.3623,0.3595,0.3617,0.3617,0.3626,0.3626,0.3699,0.3628,0.3627,0.3627,0.3627,0,0.3677,0.3694,0.3666,0.3675,0.3693,0.367,0.3688,0.3679,0.3672,0.368,0.3656,0.3663,0.364,0.3645,0.3632,0.3647,0.3648,0.3642,0.3638,0.3644,0.3645,0.3645,0.3642,0.3629,0.3629,0.3628,0.3628,0,0.3741,0.3723,0.3738,0.3722,0.3718,0.3732,0.3719,0.3727,0.3715,0.3725,0.3726,0.3708,0.3713,0.3695,0.3698,0.3689,0.3712,0.3703,0.3714,0.3711,0.3734,0.3732,0.3809,0.3818,0.3742,0.3742,0.3743,0,0.3778,0.3789,0.3775,0.3777,0.3773,0.3778,0.3779,0.3757,0.3759,0.3752,0.3761,0.3764,0.3765,0.3775,0.3762,0.3764,0.3755,0.3782,0.3755,0.3761,0.3755,0.3755,0.3756,0.3788,0.3789,0.379,0.379,0,0.3844,0.3834,0.3836,0.3835,0.3837,0.3835,0.3832,0.3836,0.3812,0.3816,0.382,0.3821,0.3823,0.3827,0.3826,0.382,0.3802,0.3799,0.3804,0.381,0.3816,0.3813,0.3729,0.3797,0.3796,0.3796,0.3795,0.3795,0.3895,0.3904,0.3895,0.3898,0.3893,0.389,0.3897,0.3886,0.3889,0.3888,0.3875,0.3883,0.3875,0.3872,0.3868,0.3874,0.3861,0.3869,0.3871,0.3873,0.3877,0.3815,0.3874,0.3874,0.3873,0.3873,0.3873,0,0.396,0.3953,0.3956,0.3951,0.3954,0.3935,0.393,0.3934,0.394,0.3935,0.3936,0.3941,0.3944,0.3932,0.3933,0.394,0.3931,0.3941,0.394,0.3939,0.3888,0.3883,0.3948,0.3948,0.3948,0.3948,0.3948,0.3948,0.3995,0.4009,0.3998,0.401,0.4002,0.4008,0.4007,0.4005,0.4,0.4007,0.4009,0.4,0.3992,0.3992,0.3994,0.3991,0.3992,0.4005,0.3998,0.395,0.3943,0.3936,0.3932,0.4005,0.4006,0.4049,0.405,0.405]},{"header":{"parameterUnit":"m.s-1","parameterCategory":1,"la1":30.2991,"la2":30.254,"lo1":-89.0895,"lo2":-89.0444,"dy":0.0017,"dx":0.0017,"nx":28,"ny":28,"refTime":"2025-03-12T03:00:00:Z","depth":0,"parameterNumber":3,"parameterNumberName":"V-component_of_WINDS"},"data":[0,0,0,0,0,0,0,0,0,0,0,0,0,0,0,0,0,0,0,0,0,0,0,0,0,0,0,0,0,0,0,0,0,0,0,0,0,0,0,0,0,0,0,0,0,0,0,0,0,0,0,0,0,0,0,0,0,0,3.843,3.8431,0,3.8566,3.8567,3.8569,3.8568,3.8566,3.8564,3.8562,3.8705,3.871,3.8716,0,0,0,0,0,0,0,0,0,0,0,0,0,3.817,3.8175,3.8429,3.8431,3.8433,3.8565,3.8567,3.8569,3.8568,3.8566,3.8563,3.8561,3.8703,3.871,3.8716,0,0,0,0,0,0,0,0,0,0,0,0,0,3.8292,3.8177,3.8429,3.8448,3.8451,3.8565,3.8567,3.857,3.8568,3.8566,3.8563,3.856,3.8701,3.8709,3.8717,3.8822,0,0,3.8742,3.8746,0,0,0,0,0,0,0,0,3.8285,3.8302,3.8444,3.8447,3.8451,3.8547,3.8528,3.8654,3.8569,3.8524,3.8562,3.8559,3.8655,3.8667,3.8698,3.8829,3.8835,3.8743,3.8748,3.8752,3.8754,0,0,0,0,0,0,0,3.8277,3.8296,3.8483,3.8446,3.845,3.845,3.8465,3.8552,3.8603,3.8528,3.8528,3.8544,3.8656,3.869,3.8702,3.8837,3.8743,3.875,3.8755,3.8758,3.9061,3.9064,0,0,0,0,0,0,3.8264,3.8289,3.8479,3.8487,3.836,3.8457,3.8473,3.8519,3.8602,3.8612,3.8546,3.8543,3.8678,3.8692,3.8707,3.8835,3.8752,3.8759,3.8764,3.9058,3.9061,3.9065,0,0,0,0,0,0,3.8259,3.8281,3.8474,3.8388,3.8413,3.8465,3.8516,3.8523,3.8557,3.8616,3.8625,3.8571,3.8676,3.8695,3.8793,3.884,3.8763,3.877,3.9054,3.9059,3.9063,3.9093,0,0,0,0,0,0,3.8251,3.8279,3.8319,3.8389,3.8417,3.8557,3.8518,3.8527,3.8571,3.8568,3.8642,3.8652,3.8675,3.8781,3.8801,3.885,3.8777,3.905,3.9056,3.9061,3.9088,3.9098,3.9107,0,0,0,0,0,3.8242,3.8323,3.8321,3.8344,3.8468,3.856,3.8576,3.8601,3.8574,3.8615,3.8653,3.8649,3.8831,3.8791,3.8814,3.8866,3.9047,3.9054,3.9061,3.9084,3.9096,3.9107,0,0,0,0,0,0,3.8259,3.8333,3.8332,3.8438,3.8492,3.856,3.8612,3.8613,3.8677,3.8673,3.8701,3.8718,3.8816,3.8851,3.8804,3.8972,3.8936,3.8948,3.8946,3.8958,3.8967,3.8957,3.8784,0,0,0,0,0,3.8275,3.8342,3.8403,3.8491,3.8518,3.856,3.8601,3.8615,3.8673,3.8697,3.8742,3.88,3.887,3.8915,3.8983,3.9093,3.9109,3.914,3.9149,3.9156,3.9167,3.9227,3.9242,3.9087,3.9087,3.9087,0,0,3.8309,3.8358,3.8399,3.8496,3.854,3.861,3.858,3.8655,3.8708,3.8709,3.8804,3.8839,3.8905,3.9009,3.9057,3.9041,3.9213,3.9165,3.9171,3.9177,3.9236,3.9251,3.9264,3.9092,3.9091,3.9091,0,0,3.8407,3.845,3.8528,3.8572,3.8638,3.8666,3.8684,3.8751,3.8774,3.8869,3.8871,3.8934,3.9054,3.9101,3.9141,3.9255,3.9254,3.9276,3.9325,3.9384,3.9396,3.9407,3.9449,3.9463,3.9286,3.9286,3.9286,0,3.8441,3.8546,3.8568,3.8643,3.8686,3.8688,3.8768,3.881,3.8895,3.8925,3.8905,3.9055,3.91,3.9215,3.9243,3.9275,3.9297,3.9269,3.9393,3.9404,3.9414,3.9454,3.947,3.9288,3.9288,3.9288,3.9288,0,3.8585,3.8657,3.8712,3.8794,3.8842,3.8919,3.8954,3.9,3.9009,3.9039,3.9136,3.9189,3.9268,3.9296,3.9306,3.9413,3.9401,3.9386,3.9351,3.9431,3.9469,3.9484,3.9292,3.9291,3.929,3.929,0,0,3.87,3.8791,3.8811,3.8847,3.892,3.8977,3.9053,3.9129,3.9169,3.9227,3.9293,3.9393,3.938,3.9425,3.9441,3.9492,3.9579,3.9472,3.9474,3.9491,3.9701,3.9712,3.9729,3.9578,3.9581,3.9584,3.9696,0,3.8806,3.8942,3.8963,3.9083,3.9151,3.9152,3.9219,3.9272,3.9301,3.9362,3.9395,3.9466,3.9443,3.947,3.9521,3.9558,3.9622,3.955,3.9641,3.9644,3.9626,3.9749,3.9762,3.9865,3.971,3.9713,3.9715,0,3.895,3.901,3.9136,3.9199,3.9228,3.9288,3.9358,3.9417,3.9476,3.9493,3.9542,3.9551,3.9631,3.9591,3.9703,3.9653,3.9692,3.9715,3.972,3.9731,3.9686,3.9765,3.9898,3.9914,3.9738,3.9736,3.9735,0,3.9022,3.9135,3.9225,3.9256,3.9331,3.9373,3.9406,3.9462,3.9506,3.9568,3.9596,3.9667,3.9706,3.9761,3.9789,3.9757,3.9899,3.9861,3.9917,3.9916,3.9948,3.9946,4.0091,3.997,3.997,3.997,3.997,0,3.9139,3.9217,3.9258,3.9314,3.94,3.9424,3.9509,3.9541,3.9591,3.9653,3.9659,3.9718,3.975,3.9814,3.9836,3.9926,3.9943,3.996,3.9966,3.9961,3.9959,3.9988,3.9982,3.9974,3.9973,3.9972,3.9972,0,3.9236,3.9267,3.9365,3.9427,3.9444,3.9505,3.9559,3.9613,3.9641,3.972,3.974,3.9784,3.9859,3.9891,3.9984,3.9999,4.0102,4.0101,4.0082,4.0084,4.0138,4.0133,4.0308,4.0333,4.0194,4.0195,4.0196,0,3.931,3.9369,3.9437,3.9478,3.9512,3.9579,3.9623,3.9648,3.9694,3.9765,3.9811,3.9885,3.9946,4.0066,4.0108,4.0178,4.018,4.0237,4.0191,4.0184,4.0183,4.0179,4.0186,4.0246,4.0247,4.0248,4.0249,0,3.9438,3.945,3.9512,3.958,3.9632,3.9687,3.9741,3.9775,3.9808,3.9859,3.9935,3.9982,4.0076,4.015,4.0223,4.0259,4.026,4.0263,4.028,4.0276,4.0263,4.0272,4.0106,4.0259,4.0258,4.0257,4.0257,4.0256,3.9527,3.9579,3.9635,3.9704,3.9746,3.9796,3.985,3.9883,3.9947,4.0024,4.0035,4.0116,4.0173,4.0271,4.0309,4.0374,4.036,4.0384,4.0391,4.0397,4.04,4.0251,4.0387,4.0387,4.0386,4.0386,4.0386,0,3.9656,3.9691,3.9755,3.9829,3.9883,3.9877,3.9936,3.9983,4.0053,4.0106,4.0165,4.0252,4.0324,4.037,4.0442,4.0485,4.0488,4.0504,4.0502,4.051,4.0408,4.0387,4.05,4.05,4.05,4.05,4.05,4.05,3.973,3.9819,3.9837,3.9946,3.9981,4.006,4.0094,4.014,4.0182,4.0278,4.0337,4.0366,4.0416,4.0492,4.0557,4.0569,4.0596,4.0613,4.0624,4.0529,4.0517,4.0506,4.0486,4.0619,4.0619,4.0721,4.0722,4.0723]}]]